Location: Cantarrana
(10.3575°N, 66.9340°W)
Time: 20:32:00
(UTC+00:00)

CZ-4B R/B - Pass Details

Date: 08 December 2021
Orbit: 809 x 881 km, 99.1° (Epoch: 16 January)

Event Time Altitude Azimuth Distance (km) Brightness Sun altitude
Rises 23:21:38 0° 176° (S) 3,425 6.6 -18.1°
Reaches altitude 10° 23:24:04 10° 181° (S) 2,478 5.9 -18.7°
Maximum altitude 23:29:25 54° 257° (WSW) 1,009 3.9 -19.9°
Drops below altitude 10° 23:34:41 10° 335° (NNW) 2,430 5.6 -21.1°
Sets 23:37:04 0° 339° (NNW) 3,353 6.3 -21.7°
